Location: Belfast
(54.5830°N, 5.9330°W)
Time: 14:08:46
(UTC+01:00)

ISS - Pass Details

Date: 21 May 2017
Orbit: 402 x 408 km, 51.6° (Epoch: 26 May)

Event Time Altitude Azimuth Distance (km) Brightness Sun altitude
Exits shadow 03:30:11 - 266° (W) 2,005 -0.6 -10.2°
Reaches altitude 10° 03:31:31 10° 262° (W) 1,469 -1.4 -10.1°
Maximum altitude 03:34:42 48° 187° (S) 541 -3.6 -9.9°
Drops below altitude 10° 03:37:52 10° 112° (ESE) 1,463 -0.9 -9.6°
Sets 03:39:59 0° 106° (ESE) 2,320 0.2 -9.5°
